Probability
0 0 0 0 0 0 0 0 0 0 0 0 0 0 0 0 0 0 0 0 0 0 0 0 0 0 0 0 0 0 0 0 0 0 0 0 0 0 0 0 0 0 0
0 0 0 0 0 0 0 0 0 0 0 0 0 0 0 0 0 0 0 0 0 0 0 0 0 0 0 0 0 0 0 0 0 0 0 0 0 0 0 0 0 0 0
0 0 0 0 0 0 0 0 0 0 0 0 0 0 0 0 0 0 0 0 0 0 0 0 0 0 0 0 0 0 0 0 0 0 0 0 0 0 0 0 0 0 0
0 0 0 0 0 0 0 0 0 0 0 0 0 0 0 0 0 0 0 0 0 0 0 0 0 0 0 0 0 0 0 0 0 0 0 0 0 0 0 0 0 0 0
0 0 0 0 0 0 0 0 0 0 0 0 0 0 0 0 0 0 0 0 0 0 0 0 0 0 0 0 0 0 0 0 0 0 0 0 0 0 0 0 0 0 0
0 0 0 0 0 0 0 0 0 0 0 0 0 0 0 0 0 0 0 0 0 0 0 0 0 0 0 0 0 0 0 0 0 0 0 0 0 0 0 0 0 0 0
0 0 0 0 0 0 0 0 0 0 0 0 0 0 0 0 0 0 0 0 0 0 0 0 0 0 0 0 0 0 0 0 0 0 0 0 0 0 0 0 0 0 0
0 0 0 0 0 0 0 0 0 0 0 0 0 0 0 0 0 0 0 0 0 0 0 0 0 0 0 0 0 0 0 0 0 0 0 0 0 0 0 0 0 0 0
0 0 0 0 0 0 0 0 0 0 0 0 0 0 0 0 0 0 0 0 0 0 0 0 0 0 0 0 0 0 0 0 0 0 0 0 0 0 0 0 0 0 0
0 0 0 0 0 0 0 0 0 0 0 0 0 0 0 0 0 0 0 0 0 0 0 0 0 0 0 0 0 0 0 0 0 0 0 0 0 0 0 0 0 0 0
0 0 0 0 0 0 0 0 0 0 0 0 0 0 0 0 0 0 0 0 0 0 0 0 0 0 0 0 0 0 0 0 0 0 0 0 0 0 0 0 0 0 0
0 0 0 0 0 0 0 0 0 0 0 0 0 0 0 0 0 0 0 0 0 0 0 0 0 0 0 0 0 0 0 0 0 0 0 0 0 0 0 0 0 0 0
0 0 0 0 0 0 0 0 0 0 0 0 0 0 0 0 0 0 0 0 0 0 0 0 0 0 0 0 0 0 0 0 0 0 0 0 0 0 0 0 0 0 0
0 0 0 0 0 0 0 0 0 0 0 0 0 0 0 0 0 0 0 0 0 0 0 0 0 0 0 0 0 0 0 0 0 0 0 0 0 0 0 0 0 0 0
0 0 0 0 0 0 0 0 0 0 0 0 0 0 0 0 0 0 0 0 0 0 0 0 0 0 0 0 0 0 0 0 0 0 0 0 0 0 0 0 0 0 0
0 0 0 0 0 0 0 0 0 0 0 0 0 0 0 0 0 0 0 0 0 0 0 0 0 0 0 0 0 0 0 0 0 0 0 0 0 0 0 0 0 0 0
0 0 0 0 0 0 0 0 0 0 0 0 0 0 0 0 0 0 0 0 0 0 0 0 0 0 0 0 0 0 0 0 0 0 0 0 0 0 0 0 0 0 0
0 0 0 0 0 0 0 0 0 0 0 0 0 0 0 0 0 0 0 0 0 0 0 0 0 0 0 0 0 0 0 0 0 0 0 0 0 0 0 0 0 0 0
0 0 0 0 0 0 0 0 0 0 0 0 0 0 0 0 0 0 0 0 0 0 0 0 0 0 0 0 0 0 0 0 0 0 0 0 0 0 0 0 0 0 0
0 0 0 0 0 0 0 0 0 0 0 0 0 0 0 0 0 0 0 0 0 0 0 0 0 0 0 0 0 0 0 0 0 0 0 0 0 0 0 0 0 0 0
0 0 0 0 0 0 0 0 0 0 0 0 0 0 0 0 0 0 0 0 0 0 0 0 0 0 0 0 0 0 0 0 0 0 0 0 0 0 0 0 0 0 0
0 0 0 0 0 0 0 0 0 0 0 0 0 0 0 0 0 0 0 0 0 0 0 0 0 0 0 0 0 0 0 0 0 0 0 0 0 0 0 0 0 0 0
0 0 0 0 0 0 0 0 0 0 0 0 0 0 0 0 0 0 0 0 0 0 0 0 0 0 0 0 0 0 0 0 0 0 0 0 0 0 0 0 0 0 0
0 0 0 0 0 0 0 0 0 0 0 0 0 0 0 0 0 0 0 0 0 0 0 0 0 0 0 0 0 0 0 0 0 0 0 0 0 0 0 0 0 0 0
0 0 0 0 0 0 0 0 0 0 0 0 0 0 0 0 0 0 0 0 0 0 0 0 0 0 0 0 0 0 0 0 0 0 0 0 0 0 0 0 0 0 0
0 0 0 0 0 0 0 0 0 0 0 0 0 0 0 0 0 0 0 0 0 0 0 0 0 0 0 0 0 0 0 0 0 0 0 0 0 0 0 0 0 0 0
Wind_Speed
7 7 5 5 5 4 5 4 4 5 5 5 4 5 5 5 5 4 3 6 11 14 14 14 14 13 14 14 15 15 13 11 9 6 5 5 5 6 7 7 8 8 9
7 7 7 6 6 5 5 5 5 5 4 3 4 4 5 5 5 6 5 6 10 14 17 17 17 16 15 15 15 15 15 15 14 11 6 6 6 5 6 6 7 7 8
8 8 7 6 5 4 5 4 5 4 4 4 4 4 3 4 5 7 7 7 7 11 17 19 19 18 18 17 16 16 16 16 15 15 11 8 8 7 7 6 7 7 7
9 7 7 6 5 4 5 5 5 4 4 4 3 3 3 4 7 7 7 7 6 7 11 19 19 20 20 19 18 18 17 17 17 17 16 12 10 10 9 8 8 8 8
9 8 7 6 6 6 5 5 6 5 4 5 3 2 3 5 6 6 7 7 7 7 6 13 18 19 20 20 20 19 19 18 18 19 18 17 14 12 11 11 10 10 9
9 8 8 8 7 7 6 5 6 6 5 4 3 2 4 5 5 5 6 6 6 8 8 8 7 11 19 20 20 20 20 20 20 20 20 20 19 17 14 13 13 12 11
9 8 8 8 7 7 7 7 5 6 7 6 4 4 4 5 5 4 4 5 6 7 7 7 6 6 7 16 18 20 21 21 21 21 21 21 21 20 19 17 15 15 14
9 9 8 7 7 7 8 8 6 4 5 7 4 3 3 3 5 3 4 5 5 5 6 7 7 7 6 5 11 19 20 20 21 22 22 22 22 21 21 21 20 18 16
9 8 8 7 7 7 7 7 7 7 5 5 6 5 4 3 4 3 4 4 6 5 5 5 6 7 7 5 6 12 18 19 21 23 24 24 23 23 22 22 22 21 20
8 8 8 8 7 6 7 7 7 6 5 4 4 4 3 1 2 4 4 4 7 6 6 7 7 6 6 4 6 12 16 19 21 24 25 25 24 24 23 23 23 22 22
7 7 7 7 7 6 7 7 7 7 5 4 4 3 3 3 4 1 5 5 5 4 6 7 5 5 5 5 5 9 18 21 24 25 25 25 25 25 25 24 24 23 23
5 6 7 6 6 5 6 6 6 6 5 5 4 3 3 2 3 2 3 5 5 4 7 5 4 5 6 5 8 16 21 24 26 26 26 26 26 26 26 26 25 24 24
4 5 6 5 5 5 5 5 5 5 5 5 4 3 3 2 2 2 3 4 4 5 4 3 4 5 5 5 8 20 19 24 26 27 27 28 28 28 27 27 26 26 25
5 5 6 5 5 5 5 5 4 4 4 4 4 3 2 2 2 2 2 3 5 4 3 5 4 3 6 7 12 21 11 23 26 27 28 28 28 28 27 27 27 26 26
5 6 6 6 5 5 4 4 3 3 3 2 2 3 2 2 2 2 2 2 3 5 6 4 3 5 7 7 14 10 9 20 26 27 27 28 28 28 28 28 27 27 27
6 6 6 5 5 4 4 4 3 3 3 2 2 2 2 2 2 2 3 3 3 4 7 5 5 7 9 11 18 12 11 25 23 25 26 27 27 27 27 27 28 27 27
6 6 6 5 5 4 3 3 2 2 1 1 2 2 3 3 3 3 3 3 3 3 9 11 6 6 8 10 12 10 10 10 11 22 26 26 26 27 27 27 27 27 27
6 6 6 5 4 4 3 2 1 1 1 2 2 3 4 3 4 3 3 4 4 4 6 14 13 8 8 9 11 12 12 12 9 20 24 26 26 26 26 26 26 26 26
7 6 6 5 4 4 3 2 2 2 2 3 3 4 4 4 5 4 4 4 4 6 5 10 14 10 8 8 11 12 12 8 11 15 21 23 24 24 24 25 26 27 26
7 7 6 5 5 4 4 3 3 3 3 4 4 5 5 5 5 5 5 5 5 6 6 9 12 11 10 9 9 10 12 9 10 11 15 17 19 22 25 27 27 27 27
7 7 6 5 5 4 4 5 4 4 4 4 5 5 6 8 10 8 7 6 6 6 6 9 12 12 11 10 11 11 13 13 10 9 9 8 9 10 12 18 22 25 26
6 6 6 6 6 5 9 11 7 4 4 5 6 6 6 6 10 14 15 15 13 9 7 8 11 13 14 13 12 12 14 15 15 4 8 11 9 10 9 8 19 26 27
7 7 7 7 7 9 13 12 12 6 5 6 6 7 7 5 5 6 11 15 14 17 18 15 15 16 16 15 16 17 16 17 17 12 13 16 9 11 9 12 23 26 28
7 7 8 8 7 9 14 13 12 7 5 7 8 8 8 7 7 8 8 9 10 11 15 13 13 15 15 16 16 17 18 17 15 12 12 16 12 11 11 7 19 26 27
7 8 6 7 8 9 13 13 12 4 6 8 8 8 8 7 12 15 10 8 11 11 15 20 22 23 27 28 23 14 12 13 14 11 9 12 13 12 10 8 12 22 22
7 7 7 7 8 7 12 14 13 4 6 7 7 8 10 12 14 15 9 7 10 11 10 11 15 18 17 18 22 14 11 11 13 10 7 8 10 11 9 5 6 6 10
Wind_Direction
74 74 70 64 55 50 48 45 45 44 39 31 29 29 20 22 25 22 46 49 36 26 21 18 14 9 5 2 2 358 351 345 338 302 285 294 319 332 336 339 342 346 349
76 77 71 63 55 53 54 51 48 44 38 21 17 21 14 17 20 24 29 37 41 34 26 20 15 9 4 -0 356 352 352 350 350 343 308 283 285 301 315 323 325 328 335
74 78 75 68 58 57 62 56 49 47 35 20 7 7 15 30 32 33 36 35 28 28 26 22 17 12 7 2 357 353 349 348 347 346 331 302 286 282 289 298 304 307 312
73 77 74 69 63 60 59 57 41 41 29 15 1 0 23 43 44 50 51 44 35 28 19 22 18 12 7 3 359 356 352 348 348 346 342 328 300 283 277 279 286 292 296
67 71 67 59 53 51 46 55 49 36 21 359 339 1 58 62 54 58 61 50 39 30 20 17 15 8 4 2 0 359 355 353 352 350 347 341 326 303 283 273 273 277 282
62 69 68 59 55 55 44 41 56 39 19 348 340 38 87 84 68 59 57 50 38 27 16 14 9 2 1 1 0 358 358 358 355 352 349 345 341 327 310 285 272 270 272
61 67 70 64 59 59 50 39 46 46 25 2 19 29 60 82 68 75 65 55 37 23 10 9 2 357 351 358 359 360 359 357 355 354 351 347 343 338 328 319 295 274 267
61 70 68 67 63 61 51 41 38 48 39 25 29 37 14 0 18 42 61 57 34 15 3 358 356 349 342 344 351 357 356 356 356 354 351 347 342 337 332 324 320 304 280
63 66 66 67 63 64 60 47 39 49 49 25 34 56 65 356 322 338 26 44 22 4 349 340 341 333 332 344 344 352 352 351 351 349 345 341 338 334 331 326 320 315 305
64 65 66 66 65 61 59 51 44 44 55 38 17 26 62 55 16 322 322 11 7 348 340 332 321 315 319 333 335 344 348 345 343 341 337 333 331 329 327 324 320 316 310
65 66 67 68 67 63 61 56 48 44 46 52 40 14 3 10 41 325 305 326 330 320 321 309 301 308 318 322 321 339 344 338 335 332 328 326 324 323 321 320 317 315 311
80 74 74 70 70 69 66 61 57 52 47 48 44 38 33 16 4 348 307 312 310 301 301 297 318 330 320 326 340 341 337 330 327 324 322 320 318 317 316 314 313 311 309
102 92 89 83 78 77 76 74 68 58 50 51 47 33 22 15 3 338 305 303 307 293 298 312 322 315 339 356 341 330 327 325 322 319 317 316 314 313 311 310 308 307 305
123 115 104 98 90 82 80 79 76 66 53 48 42 32 7 350 356 342 317 315 313 301 297 300 299 331 353 336 322 328 326 323 319 316 315 313 311 310 309 308 306 305 303
129 125 122 116 108 97 90 94 89 73 52 49 35 14 0 343 340 320 306 296 292 303 301 286 316 337 332 324 322 322 321 318 317 316 313 312 310 309 308 307 305 303 301
134 135 131 126 123 116 103 100 99 80 57 30 16 358 340 322 311 304 298 291 272 266 285 282 296 314 323 321 319 321 314 316 316 314 313 311 309 308 307 306 304 302 300
146 145 142 136 131 124 112 102 101 85 55 348 325 320 305 299 296 299 298 287 276 272 282 290 292 307 314 315 314 309 309 307 310 315 313 311 313 313 311 309 306 304 302
151 148 144 141 142 140 136 133 139 155 238 276 285 289 286 292 290 287 285 283 280 273 278 292 300 309 310 310 308 310 310 310 309 312 315 317 314 312 313 312 311 309 308
154 151 152 158 161 162 165 175 196 222 237 251 260 265 271 278 279 276 281 280 279 286 281 288 296 305 306 308 308 304 300 300 306 309 313 312 311 314 319 320 319 318 316
162 165 168 170 172 175 185 199 212 226 241 252 254 255 258 259 267 274 280 277 283 285 288 290 294 301 305 304 301 309 308 303 302 307 304 305 309 316 314 312 311 311 310
172 170 171 177 180 187 200 205 213 226 242 257 259 256 256 261 267 273 275 267 271 275 282 289 293 298 301 309 309 308 303 304 296 292 291 293 299 295 298 300 302 301 302
175 172 181 184 195 206 219 223 221 228 246 257 266 265 264 262 272 279 285 287 284 282 281 282 289 291 296 300 301 299 300 300 302 284 290 294 289 288 287 283 294 300 303
182 188 193 194 207 220 227 230 234 236 242 253 263 268 271 264 262 271 281 287 290 289 288 286 286 287 292 295 294 293 289 289 290 298 299 295 289 287 284 291 298 299 299
191 197 202 204 211 224 232 235 238 239 242 252 255 257 263 267 266 273 272 273 278 283 285 284 280 284 287 289 286 287 290 291 290 289 287 289 292 289 291 280 293 294 295
197 201 201 202 212 226 232 236 238 225 245 255 256 255 255 258 268 277 280 279 285 286 293 294 295 297 299 301 302 301 297 295 294 294 288 284 291 295 291 285 283 289 292
200 198 209 204 211 220 231 238 238 223 240 252 256 258 256 259 265 273 275 276 285 293 300 305 307 306 304 301 301 297 296 295 296 297 290 288 296 306 297 266 270 284 290